Location: Il Ritiro
(43.4167°N, 13.1333°E)
Time: 01:40:38
(UTC+00:00)

Meteor 2-17 Rocket - Pass Details

Date: 05 July 2020
Orbit: 935 x 956 km, 82.5° (Epoch: 11 August)

Event Time Altitude Azimuth Distance (km) Brightness Sun altitude
Exits shadow 21:27:25 32° 178° (S) 1,566 5.1 -19.7°
Maximum altitude 21:30:26 80° 96° (E) 958 4.3 -19.9°
Drops below altitude 10° 21:36:30 10° 11° (N) 2,657 7.6 -20.3°
Sets 21:39:00 0° 10° (N) 3,604 8.4 -20.5°
